Temp
-15 -14 -14 -14 -14 -14 -13 -13 -13 -13 -13 -13 -13 -12 -12 -13 -13 -13 -12 -13 -13 -13 -12 -12 -12 -12 -12 -11 -12 -11 -11 -11 -11 -10 -9 -9 -9 -9 -9 -9 -9 -8 -8 -8 -8
-16 -15 -15 -15 -14 -14 -14 -14 -13 -13 -13 -13 -13 -13 -13 -13 -13 -13 -13 -14 -14 -13 -13 -12 -12 -12 -12 -12 -11 -11 -11 -12 -11 -10 -10 -10 -10 -9 -9 -9 -9 -9 -8 -8 -8
-17 -17 -16 -15 -15 -15 -14 -14 -14 -14 -13 -13 -14 -13 -14 -12 -13 -12 -14 -14 -14 -13 -14 -13 -12 -12 -12 -12 -12 -11 -11 -11 -11 -11 -10 -10 -10 -10 -10 -10 -9 -9 -9 -8 -8
-19 -18 -18 -17 -16 -16 -15 -15 -15 -14 -14 -14 -14 -14 -14 -14 -13 -12 -14 -14 -14 -14 -13 -13 -13 -12 -12 -12 -12 -12 -12 -11 -11 -11 -10 -10 -10 -10 -10 -10 -10 -9 -9 -9 -8
-19 -19 -19 -18 -18 -17 -16 -16 -15 -15 -15 -14 -14 -14 -14 -14 -13 -12 -14 -14 -14 -14 -13 -13 -13 -13 -12 -12 -12 -12 -12 -12 -11 -12 -11 -10 -10 -10 -10 -10 -10 -10 -9 -9 -8
-19 -19 -19 -19 -18 -18 -18 -17 -16 -16 -16 -15 -16 -15 -15 -14 -13 -13 -13 -13 -14 -14 -14 -13 -13 -13 -13 -13 -12 -12 -12 -12 -11 -11 -11 -11 -10 -10 -10 -10 -10 -10 -9 -9 -9
-20 -19 -19 -19 -19 -18 -19 -18 -18 -17 -17 -16 -16 -16 -15 -14 -14 -14 -14 -14 -14 -13 -14 -14 -14 -14 -12 -14 -13 -12 -12 -12 -12 -11 -11 -11 -10 -11 -11 -10 -11 -10 -10 -9 -9
-20 -20 -20 -19 -19 -19 -19 -19 -19 -18 -18 -17 -17 -16 -16 -15 -15 -15 -14 -14 -15 -14 -14 -13 -14 -14 -13 -13 -13 -13 -12 -11 -11 -12 -11 -11 -11 -11 -11 -11 -10 -10 -10 -10 -9
-20 -20 -20 -20 -20 -19 -19 -20 -20 -19 -19 -19 -18 -17 -17 -16 -15 -15 -16 -16 -16 -15 -14 -14 -14 -14 -14 -14 -13 -13 -12 -12 -11 -12 -12 -11 -11 -11 -11 -11 -10 -10 -10 -10 -10
-21 -21 -21 -20 -20 -20 -20 -20 -20 -20 -20 -20 -19 -18 -18 -16 -16 -16 -17 -16 -16 -16 -15 -15 -15 -14 -14 -14 -12 -12 -13 -12 -12 -12 -11 -11 -11 -11 -11 -11 -11 -10 -10 -10 -10
-22 -22 -22 -21 -21 -21 -20 -20 -21 -21 -20 -19 -18 -18 -17 -17 -16 -16 -17 -17 -17 -16 -15 -15 -15 -14 -14 -13 -14 -13 -14 -14 -13 -12 -11 -11 -11 -11 -10 -10 -10 -10 -10 -10 -10
-23 -22 -22 -21 -21 -21 -21 -20 -20 -19 -20 -20 -19 -19 -18 -18 -17 -17 -17 -17 -17 -15 -15 -16 -14 -14 -14 -14 -14 -14 -14 -14 -13 -13 -12 -12 -10 -11 -10 -10 -10 -10 -10 -10 -10
-24 -24 -22 -20 -22 -22 -21 -20 -21 -20 -21 -20 -19 -19 -19 -18 -18 -17 -17 -17 -17 -17 -15 -15 -14 -15 -15 -14 -15 -15 -14 -14 -14 -14 -13 -12 -10 -11 -10 -10 -10 -9 -9 -10 -10
-25 -24 -23 -22 -22 -21 -21 -21 -22 -21 -22 -21 -21 -20 -20 -20 -19 -18 -17 -17 -18 -17 -16 -16 -15 -15 -15 -14 -15 -15 -15 -14 -15 -14 -13 -12 -10 -10 -10 -9 -9 -9 -9 -10 -10
-25 -25 -24 -24 -21 -21 -20 -22 -22 -22 -23 -22 -21 -21 -20 -20 -19 -18 -18 -17 -17 -17 -17 -16 -15 -16 -16 -15 -16 -15 -15 -15 -15 -14 -14 -13 -12 -9 -11 -9 -9 -10 -10 -10 -10
-25 -25 -24 -23 -22 -22 -22 -22 -22 -21 -23 -22 -21 -21 -21 -20 -20 -20 -18 -18 -17 -17 -17 -17 -17 -17 -16 -17 -17 -16 -15 -15 -15 -14 -13 -13 -12 -9 -10 -10 -10 -10 -10 -10 -10
-25 -25 -24 -23 -22 -22 -22 -22 -22 -23 -22 -21 -21 -21 -20 -20 -20 -20 -19 -18 -18 -18 -18 -18 -17 -17 -17 -17 -17 -16 -15 -15 -15 -15 -12 -13 -12 -9 -11 -11 -11 -12 -11 -11 -10
-25 -25 -24 -23 -22 -22 -22 -22 -23 -22 -21 -21 -21 -21 -21 -21 -21 -20 -20 -19 -18 -18 -18 -18 -18 -17 -16 -16 -16 -17 -17 -17 -16 -14 -14 -14 -13 -10 -12 -11 -12 -12 -12 -12 -11
-26 -25 -23 -23 -23 -22 -22 -22 -23 -22 -21 -21 -22 -22 -21 -21 -21 -20 -20 -19 -19 -19 -19 -18 -18 -17 -17 -17 -17 -17 -17 -17 -17 -15 -14 -14 -13 -12 -12 -12 -11 -12 -12 -12 -11
-25 -25 -23 -22 -22 -22 -22 -23 -23 -22 -21 -21 -21 -21 -21 -21 -21 -21 -21 -20 -19 -19 -18 -19 -18 -18 -18 -18 -17 -17 -17 -17 -17 -17 -16 -13 -13 -12 -12 -12 -12 -12 -11 -12 -11
-26 -25 -24 -23 -22 -22 -22 -23 -23 -22 -22 -22 -22 -21 -21 -21 -21 -20 -20 -20 -20 -20 -20 -20 -20 -19 -18 -18 -18 -18 -18 -18 -17 -17 -16 -14 -13 -12 -12 -12 -13 -13 -13 -13 -12
-25 -24 -24 -22 -23 -23 -23 -23 -22 -22 -21 -22 -22 -22 -22 -22 -21 -21 -21 -20 -20 -20 -20 -20 -19 -19 -19 -18 -19 -19 -18 -19 -18 -17 -17 -16 -12 -12 -12 -13 -13 -13 -13 -13 -13
-25 -24 -23 -23 -22 -23 -23 -23 -23 -22 -22 -22 -22 -22 -22 -22 -22 -22 -21 -21 -20 -20 -20 -20 -20 -20 -20 -19 -18 -18 -18 -18 -18 -18 -17 -17 -12 -12 -12 -13 -13 -13 -14 -14 -14
-25 -25 -24 -24 -23 -22 -22 -22 -22 -22 -22 -22 -22 -22 -23 -23 -22 -22 -22 -21 -21 -21 -21 -21 -21 -20 -20 -19 -19 -19 -19 -19 -19 -19 -17 -17 -14 -13 -13 -13 -14 -14 -14 -13 -13
-24 -24 -23 -23 -23 -23 -22 -21 -22 -22 -22 -22 -22 -22 -23 -23 -23 -22 -22 -22 -22 -21 -21 -21 -21 -20 -20 -20 -20 -19 -19 -20 -19 -18 -19 -16 -16 -12 -15 -14 -14 -14 -13 -14 -13
-24 -24 -23 -23 -22 -23 -23 -22 -22 -22 -22 -22 -22 -23 -23 -23 -23 -23 -23 -22 -22 -22 -22 -21 -21 -21 -20 -21 -21 -20 -20 -19 -19 -18 -18 -16 -16 -12 -16 -15 -15 -14 -14 -14 -14
-24 -23 -23 -23 -23 -23 -22 -22 -22 -22 -23 -23 -23 -23 -24 -24 -24 -23 -23 -23 -23 -23 -23 -22 -22 -22 -21 -21 -22 -21 -19 -19 -19 -19 -18 -17 -15 -15 -16 -15 -15 -15 -15 -14 -15
Height
5682 5690 5698 5707 5716 5724 5734 5742 5751 5759 5765 5773 5779 5783 5788 5792 5798 5805 5813 5821 5824 5829 5834 5838 5844 5848 5851 5855 5856 5860 5862 5866 5867 5869 5871 5872 5874 5875 5875 5877 5878 5879 5880 5879 5879
5663 5672 5681 5690 5700 5710 5719 5726 5737 5746 5753 5760 5769 5775 5779 5786 5789 5795 5805 5809 5815 5821 5826 5831 5836 5841 5844 5849 5852 5855 5859 5861 5862 5864 5867 5868 5870 5871 5872 5873 5874 5877 5877 5877 5878
5643 5652 5662 5672 5682 5693 5703 5713 5722 5732 5742 5748 5756 5764 5770 5775 5778 5788 5793 5799 5805 5812 5817 5823 5828 5833 5838 5843 5846 5850 5855 5856 5858 5860 5862 5864 5866 5868 5868 5869 5871 5873 5873 5874 5875
5629 5637 5645 5654 5664 5675 5687 5698 5708 5718 5727 5735 5742 5750 5758 5763 5767 5777 5783 5789 5794 5802 5808 5814 5820 5824 5829 5835 5840 5844 5848 5850 5853 5855 5858 5860 5862 5864 5866 5866 5868 5868 5869 5871 5872
5615 5624 5632 5640 5648 5658 5670 5682 5693 5703 5713 5722 5728 5736 5744 5749 5760 5768 5774 5780 5785 5791 5798 5804 5810 5815 5820 5826 5832 5836 5841 5844 5847 5850 5853 5856 5858 5860 5862 5864 5865 5866 5867 5868 5869
5600 5610 5619 5628 5635 5645 5655 5667 5677 5689 5699 5708 5715 5721 5730 5739 5751 5759 5768 5768 5771 5781 5788 5793 5801 5807 5811 5816 5822 5829 5834 5837 5840 5844 5846 5850 5852 5856 5857 5859 5860 5862 5863 5864 5865
5583 5594 5605 5615 5624 5632 5642 5653 5663 5674 5684 5696 5702 5709 5717 5732 5738 5747 5759 5759 5761 5771 5779 5785 5789 5795 5803 5806 5813 5819 5825 5829 5833 5837 5840 5843 5846 5853 5851 5854 5857 5858 5858 5860 5861
5566 5578 5589 5601 5611 5621 5630 5640 5651 5661 5671 5682 5693 5699 5705 5715 5724 5733 5744 5750 5756 5764 5772 5777 5782 5787 5791 5798 5802 5808 5815 5820 5825 5829 5832 5836 5843 5847 5846 5848 5852 5853 5854 5855 5856
5546 5560 5573 5586 5598 5608 5619 5628 5639 5649 5659 5667 5680 5681 5693 5703 5712 5719 5734 5741 5746 5756 5759 5767 5769 5776 5781 5787 5792 5796 5806 5812 5815 5820 5822 5827 5835 5840 5840 5843 5845 5846 5847 5850 5852
5525 5541 5557 5571 5585 5596 5608 5616 5624 5630 5640 5650 5661 5669 5677 5693 5703 5712 5720 5730 5737 5745 5751 5758 5762 5766 5770 5776 5783 5788 5794 5799 5806 5811 5813 5818 5826 5832 5832 5834 5837 5840 5843 5845 5846
5503 5524 5541 5558 5571 5583 5591 5596 5604 5613 5624 5638 5651 5663 5671 5683 5692 5700 5706 5717 5725 5732 5740 5747 5753 5761 5764 5769 5772 5776 5782 5790 5795 5799 5802 5807 5813 5825 5824 5826 5831 5835 5838 5839 5841
5486 5506 5528 5544 5557 5568 5574 5586 5609 5621 5623 5628 5643 5652 5659 5671 5682 5689 5696 5706 5715 5728 5730 5735 5744 5759 5755 5759 5763 5767 5773 5778 5783 5788 5792 5796 5801 5816 5817 5819 5825 5830 5833 5835 5836
5472 5492 5514 5534 5542 5550 5570 5588 5592 5602 5609 5619 5631 5643 5653 5662 5670 5681 5689 5697 5706 5713 5723 5731 5741 5742 5744 5750 5754 5760 5766 5770 5773 5778 5782 5787 5789 5804 5811 5812 5816 5821 5826 5829 5832
5458 5479 5500 5519 5530 5546 5561 5574 5583 5593 5597 5605 5616 5628 5639 5654 5664 5674 5682 5688 5694 5706 5715 5719 5727 5732 5734 5743 5746 5752 5758 5761 5766 5770 5773 5776 5776 5790 5802 5804 5809 5815 5819 5824 5826
5448 5467 5489 5508 5520 5532 5559 5565 5575 5582 5584 5594 5605 5617 5631 5641 5656 5666 5675 5679 5688 5696 5704 5713 5721 5725 5728 5738 5739 5745 5750 5753 5757 5760 5762 5769 5767 5787 5792 5798 5805 5809 5812 5815 5816
5439 5460 5481 5498 5514 5532 5540 5554 5565 5567 5566 5582 5594 5607 5619 5631 5646 5659 5671 5677 5678 5685 5692 5702 5711 5713 5723 5725 5730 5734 5742 5745 5748 5750 5753 5762 5760 5771 5787 5793 5795 5798 5803 5805 5807
5432 5452 5474 5490 5509 5520 5533 5541 5550 5552 5562 5577 5589 5602 5615 5625 5636 5648 5658 5663 5670 5676 5683 5693 5701 5706 5712 5717 5722 5727 5731 5736 5739 5741 5752 5753 5752 5764 5781 5783 5788 5789 5791 5795 5798
5426 5448 5465 5485 5498 5512 5523 5531 5539 5547 5561 5575 5586 5599 5608 5618 5629 5641 5648 5654 5660 5666 5679 5686 5691 5697 5707 5713 5719 5721 5722 5725 5730 5736 5744 5742 5747 5757 5770 5774 5778 5780 5782 5784 5786
5420 5439 5459 5477 5491 5506 5516 5524 5530 5545 5561 5572 5583 5590 5600 5610 5623 5631 5640 5649 5656 5663 5674 5680 5683 5691 5699 5703 5708 5710 5712 5720 5722 5725 5728 5733 5745 5749 5759 5766 5769 5772 5774 5774 5777
5413 5432 5455 5472 5488 5500 5510 5520 5530 5543 5556 5565 5575 5584 5593 5606 5615 5624 5633 5644 5652 5661 5665 5671 5677 5683 5688 5693 5696 5702 5707 5710 5712 5714 5717 5726 5734 5742 5750 5758 5760 5760 5763 5766 5768
5407 5424 5447 5468 5482 5492 5502 5513 5527 5540 5553 5560 5570 5582 5592 5601 5612 5620 5631 5640 5645 5652 5657 5663 5672 5676 5678 5683 5690 5695 5699 5702 5705 5708 5708 5714 5725 5736 5741 5748 5752 5752 5753 5755 5758
5402 5422 5447 5461 5472 5485 5497 5512 5525 5538 5547 5558 5567 5579 5588 5597 5603 5612 5621 5632 5638 5642 5649 5657 5658 5663 5668 5674 5679 5682 5690 5694 5696 5701 5700 5701 5711 5730 5732 5737 5741 5743 5743 5744 5745
5407 5428 5443 5458 5463 5479 5493 5510 5524 5534 5543 5554 5563 5573 5581 5588 5594 5604 5614 5620 5627 5635 5640 5644 5646 5651 5654 5661 5669 5674 5681 5684 5689 5685 5691 5693 5710 5719 5723 5724 5727 5728 5729 5731 5733
5407 5424 5441 5452 5467 5485 5498 5510 5521 5531 5542 5552 5560 5567 5574 5581 5589 5596 5603 5610 5616 5622 5627 5629 5634 5638 5648 5661 5658 5661 5669 5674 5675 5675 5687 5683 5701 5710 5710 5710 5711 5714 5717 5722 5723
5410 5424 5435 5444 5462 5484 5500 5512 5520 5528 5538 5547 5554 5562 5570 5576 5582 5588 5594 5600 5604 5610 5614 5618 5625 5632 5642 5641 5643 5649 5654 5659 5660 5672 5665 5684 5683 5701 5698 5693 5697 5703 5708 5706 5705
5415 5425 5440 5458 5471 5486 5498 5510 5520 5528 5536 5542 5549 5557 5564 5570 5578 5584 5588 5592 5598 5603 5606 5611 5617 5622 5627 5629 5631 5634 5641 5647 5652 5656 5654 5670 5670 5695 5682 5682 5686 5690 5690 5692 5694
5422 5435 5454 5464 5475 5488 5501 5511 5518 5526 5533 5541 5548 5555 5560 5564 5569 5574 5579 5583 5589 5594 5599 5603 5608 5613 5617 5619 5618 5618 5638 5639 5642 5645 5653 5650 5671 5678 5670 5668 5675 5679 5680 5681 5683
Wind_Speed
77 77 77 77 78 78 79 78 75 72 66 64 62 61 59 63 65 65 63 52 50 51 52 51 49 43 38 37 36 31 29 27 26 24 25 24 25 26 25 18 18 16 14 14 13
74 76 77 78 78 77 77 77 77 73 70 67 63 62 62 59 62 66 60 56 55 53 53 51 52 52 46 40 40 39 34 29 28 26 25 22 25 24 26 22 20 19 16 16 16
65 71 76 77 78 78 78 78 77 75 74 71 67 64 61 33 54 62 63 60 59 57 53 55 52 54 51 50 46 43 40 36 33 27 27 25 23 22 26 24 22 21 17 17 17
60 59 63 72 76 78 79 78 78 77 76 73 70 66 66 66 41 53 58 61 62 60 58 55 58 53 50 52 47 48 45 41 36 32 29 28 24 21 24 27 22 22 21 19 18
61 59 58 57 63 70 77 79 79 79 77 75 73 71 69 69 70 62 54 57 61 65 60 54 52 54 56 52 52 48 43 44 43 36 32 29 26 23 25 25 24 24 22 21 19
67 64 60 57 57 59 67 75 78 78 78 78 68 73 71 71 67 62 49 49 63 63 54 58 59 55 54 53 52 52 47 43 43 41 35 31 29 24 25 26 26 25 24 22 22
73 69 65 63 58 58 59 65 72 75 77 75 72 64 74 70 69 66 59 37 40 52 51 48 62 63 57 59 54 53 52 50 44 43 40 35 33 21 27 26 24 26 27 26 25
78 75 68 64 62 61 59 59 63 71 74 75 75 74 65 73 73 74 57 59 56 53 56 41 57 55 56 55 58 53 52 52 50 45 43 40 32 27 30 29 28 26 26 27 26
79 75 74 69 64 61 60 58 58 65 70 72 71 68 73 68 73 72 68 68 55 54 48 62 43 49 50 53 56 59 55 52 52 49 47 44 36 31 33 32 32 31 28 25 25
79 73 74 71 66 62 60 59 59 63 69 71 75 75 70 69 70 72 60 63 57 55 54 62 55 47 49 51 51 52 58 57 52 51 51 48 40 36 37 37 34 34 29 26 24
71 79 76 69 69 65 64 66 65 66 66 72 73 68 71 72 66 67 64 63 62 59 61 58 58 43 54 47 42 51 52 59 54 52 54 52 49 39 42 41 38 34 29 25 25
74 79 77 60 67 71 67 66 55 58 59 67 69 67 60 67 70 62 64 59 63 59 57 51 60 50 42 50 47 47 48 52 56 55 54 52 55 43 45 44 40 38 35 28 27
76 81 80 63 73 70 60 56 58 59 60 60 68 69 66 52 64 68 59 61 59 61 62 56 56 61 46 44 37 39 51 44 51 50 50 52 57 47 47 48 43 40 38 34 29
77 81 81 47 61 56 55 57 56 58 60 63 62 68 67 65 56 51 52 58 57 57 65 61 66 70 68 50 44 34 29 48 50 47 49 53 58 54 50 50 47 41 39 34 33
71 82 82 80 59 61 56 59 60 56 60 63 63 64 66 65 67 63 45 43 56 54 55 60 62 52 63 68 57 48 36 40 51 53 51 49 55 47 46 49 47 41 38 36 36
73 78 80 73 68 59 56 60 60 62 63 64 64 63 64 67 66 55 44 53 45 53 55 56 51 50 49 51 52 52 54 44 42 45 50 45 48 51 39 38 45 45 40 38 38
73 80 76 73 65 66 67 62 63 68 64 62 61 64 63 64 63 64 66 60 40 40 49 47 46 44 43 43 48 53 56 57 52 46 49 43 49 50 33 38 38 40 38 41 39
76 75 83 67 61 66 64 63 69 71 63 57 53 57 61 62 62 62 67 68 64 45 42 41 47 47 48 44 42 40 42 49 52 54 44 44 46 45 34 34 38 39 36 38 39
80 82 76 63 67 60 62 74 67 63 57 54 49 53 58 64 62 61 64 64 67 62 54 57 46 47 40 40 41 42 41 39 46 50 59 55 44 48 42 36 37 36 34 39 40
81 72 76 64 60 64 65 66 62 57 52 50 52 52 57 59 64 64 60 60 54 55 54 50 52 44 46 46 44 40 40 38 40 44 50 55 51 48 44 39 41 44 43 42 43
79 82 81 63 56 67 64 67 59 60 51 50 46 47 48 55 56 60 63 62 62 58 56 54 49 50 49 47 43 41 37 36 36 44 49 58 54 51 50 44 37 36 37 38 39
81 84 82 62 66 60 60 57 54 50 50 53 43 43 44 45 53 56 55 57 59 58 58 54 56 57 56 54 52 51 47 40 36 32 41 50 64 51 53 42 41 38 38 41 39
80 78 63 59 71 73 65 55 48 46 48 49 43 42 41 45 47 49 53 54 55 56 56 58 59 58 59 59 58 56 53 52 51 57 53 54 59 53 51 48 43 39 42 44 43
80 77 76 73 63 73 65 51 47 47 47 44 42 41 40 40 44 48 48 53 54 55 56 57 58 61 60 56 60 61 56 52 54 56 56 60 47 43 47 52 51 44 41 47 50
80 77 66 74 68 70 55 43 43 42 41 41 40 37 36 38 41 44 47 50 53 56 59 56 57 59 57 58 59 59 58 56 57 53 59 53 54 47 41 46 43 45 42 41 47
78 52 62 67 62 65 51 40 37 40 37 35 38 37 38 40 41 42 44 46 49 52 51 53 58 57 59 59 60 61 58 57 57 54 61 54 55 37 40 43 42 38 38 38 38
55 51 58 62 58 53 45 37 33 27 24 30 32 32 33 33 36 38 40 43 46 48 48 49 49 50 53 53 54 60 57 57 54 54 54 55 45 43 46 47 42 42 38 34 33
Wind_Direction
243 242 241 238 238 238 238 240 241 240 239 237 236 237 236 235 236 236 238 235 234 235 236 235 233 232 234 233 233 242 242 243 242 244 249 252 255 242 234 228 231 234 232 230 238
237 237 237 237 236 236 236 237 239 238 238 238 233 234 236 239 238 237 234 233 232 233 236 238 235 235 236 238 239 243 246 248 245 242 246 251 253 246 233 223 224 228 227 229 237
233 232 231 233 234 234 234 233 235 235 235 235 235 230 230 240 244 237 233 234 235 232 233 235 238 237 236 238 240 245 249 253 251 244 244 247 251 248 233 223 218 222 222 229 234
235 234 233 230 230 230 231 231 232 232 232 232 232 231 229 229 240 231 231 232 236 236 233 229 235 237 238 240 243 245 248 251 252 247 242 243 246 246 236 230 220 221 220 223 230
239 238 236 235 233 230 229 229 230 230 230 229 229 230 228 228 227 234 231 236 233 236 234 235 228 236 238 239 240 244 244 249 251 251 244 242 242 244 236 233 225 227 225 226 230
240 239 238 236 235 234 232 228 228 229 229 229 227 226 228 228 229 229 229 212 224 230 237 232 232 233 235 239 239 241 244 247 250 250 246 243 239 240 239 235 229 230 230 232 231
240 240 238 237 235 235 234 231 228 227 226 227 226 227 226 226 227 226 210 201 224 219 229 236 235 228 239 238 240 240 240 243 246 248 247 243 239 231 238 236 234 235 232 232 235
237 238 237 235 234 232 233 231 228 227 225 224 225 226 225 224 225 227 213 225 217 221 219 235 234 239 240 245 238 238 238 239 243 245 247 245 236 234 238 236 234 236 237 235 234
232 232 233 231 229 229 230 230 227 227 225 223 216 233 223 224 222 229 223 230 235 226 216 221 227 236 237 241 242 238 237 238 240 242 246 245 237 236 237 237 235 234 236 239 240
223 225 226 227 224 226 225 227 223 221 221 223 220 221 220 222 222 226 223 224 224 225 223 223 231 238 244 239 237 240 237 237 237 237 243 246 243 233 238 236 233 234 232 235 238
215 217 217 223 221 220 219 219 216 217 216 222 221 220 223 225 223 225 228 226 223 218 224 233 229 231 227 226 238 234 235 235 233 233 237 243 246 236 236 238 236 234 231 231 237
208 209 209 207 217 219 217 219 221 225 219 219 221 220 219 220 224 225 227 228 222 220 217 225 219 220 215 226 229 231 233 235 232 232 235 237 245 236 238 239 241 241 239 235 235
205 204 202 208 210 208 211 214 216 218 216 219 217 218 219 216 219 223 230 229 226 225 223 223 215 215 222 224 217 225 232 236 229 225 227 232 241 234 236 239 238 241 243 241 241
203 200 197 193 202 205 206 210 209 214 216 217 217 217 216 216 211 212 221 222 222 226 226 229 227 228 235 224 223 224 231 231 226 234 232 236 241 239 235 238 238 239 244 246 245
202 196 198 204 200 206 209 212 210 215 216 216 214 214 215 214 212 209 212 227 228 227 227 226 231 237 242 232 247 241 231 231 233 234 234 236 244 236 235 237 240 239 241 242 245
197 193 194 194 200 203 206 210 204 203 217 217 213 211 212 213 213 211 217 216 218 223 225 226 229 233 234 233 235 246 243 233 226 224 228 228 240 243 228 233 234 239 239 238 241
189 189 190 194 194 198 203 198 200 207 209 218 217 213 212 214 212 208 204 205 201 209 209 216 218 222 227 226 228 236 241 245 237 231 226 226 232 245 226 232 235 239 239 239 239
188 185 194 190 191 192 197 198 196 206 215 216 215 214 214 214 213 212 210 211 211 213 218 220 220 217 222 223 228 231 236 241 251 240 231 239 229 237 231 228 229 234 235 239 240
188 186 185 189 197 197 197 197 200 201 209 216 213 216 211 213 215 213 214 216 221 230 227 222 215 214 215 219 228 238 241 242 247 251 247 241 229 232 228 222 230 230 232 234 238
183 181 181 181 188 191 195 196 202 207 208 213 216 216 216 215 218 217 217 215 212 218 214 213 226 226 230 233 234 235 238 246 246 251 251 242 226 228 237 238 238 239 241 241 245
183 182 180 187 186 192 194 194 198 199 210 212 212 222 221 217 218 222 223 221 222 226 231 237 233 235 233 234 238 240 241 246 253 249 252 248 239 235 238 240 235 236 239 242 244
183 179 176 176 185 193 193 199 200 202 208 212 216 220 222 220 221 221 224 226 226 230 232 237 236 237 240 239 241 242 242 238 237 240 245 251 241 238 239 243 241 236 238 236 228
176 176 181 182 190 192 190 200 203 206 208 208 220 220 219 219 221 223 223 224 227 230 233 236 238 239 241 242 242 243 243 244 241 245 246 247 238 241 243 244 243 232 229 227 224
171 175 183 192 199 192 195 200 202 203 209 216 219 220 221 221 221 221 222 225 227 229 232 235 237 241 245 249 249 247 247 246 246 249 250 252 249 245 251 249 245 241 235 231 231
174 177 184 188 192 190 193 200 204 206 206 208 218 223 228 228 224 224 224 225 228 229 232 236 239 241 241 243 245 243 244 245 247 246 251 247 248 241 238 241 238 238 240 237 237
174 183 177 181 186 183 191 198 205 203 208 215 218 219 225 230 231 233 231 230 232 233 235 239 239 240 241 242 244 245 245 247 246 246 249 243 241 232 238 233 232 229 232 239 243
173 178 177 180 181 192 192 194 195 200 208 218 218 218 220 225 228 228 227 228 230 234 235 238 239 239 241 243 244 245 247 248 250 246 250 248 235 216 238 236 230 235 240 241 246